contact:dominique.lefevre@mio.osupytheas.fr, maurice.libes@osupytheas.fr, didier.mallarino@osupytheas.fr
Project:EMSO http://www.emso-fr.org/EMSO-France
Depth: 2436.0 m
Title:EMSO Ligure Ouest : Data MII capteur AQUADOPP
Date,Latitude,Longitude,X_East,Y_North,Z_Up,Amplitude_X,Amplitude_Y,Amplitude_Z,Batterie,SoundSpeed,Heading,Pitch,Roll,Pressure,TIS,Speed,Direction
, degrees North, degrees East, m.s-1, m.s-1,m.s-1, 1, 1, 1, Volt, m.s-1, degree, degree, degree, dbar, degree_C, m.s-1, degree
2020-08-08T00:04:03,42.805,6.029,0.069,0.023,0.039,103.0,107.0,99.0,13.4,1505.3,323.3,-0.7,1.8,2470.494,13.32,0.072,71.6
2020-08-08T00:07:03,42.805,6.029,0.073,0.03,0.076,103.0,107.0,100.0,13.3,1505.3,324.0,-0.7,1.8,2470.542,13.33,0.078,67.7
2020-08-08T00:10:03,42.805,6.029,0.054,0.013,0.062,102.0,107.0,100.0,13.3,1505.3,326.8,-0.7,1.9,2470.488,13.33,0.055,76.5
2020-08-08T00:13:03,42.805,6.029,0.038,0.016,0.034,104.0,106.0,101.0,13.4,1505.3,324.2,-0.7,1.8,2470.479,13.33,0.041,67.2
2020-08-08T00:16:03,42.805,6.029,0.039,0.035,0.022,103.0,107.0,100.0,13.3,1505.4,325.8,-0.7,1.8,2470.483,13.34,0.052,48.1
2020-08-08T00:19:03,42.805,6.029,0.045,0.023,0.051,104.0,107.0,100.0,13.4,1505.4,325.8,-0.7,1.8,2470.508,13.34,0.05,62.9
2020-08-08T00:22:03,42.805,6.029,0.035,0.029,0.035,103.0,107.0,101.0,13.4,1505.4,327.7,-0.7,1.8,2470.449,13.34,0.045,50.4
2020-08-08T00:25:03,42.805,6.029,0.076,0.01,0.072,103.0,108.0,100.0,13.4,1505.4,326.9,-0.7,1.9,2470.492,13.34,0.076,82.5
2020-08-08T00:28:03,42.805,6.029,0.047,0.014,0.011,102.0,107.0,100.0,13.4,1505.4,327.9,-0.7,1.8,2470.477,13.34,0.049,73.4
2020-08-08T00:31:03,42.805,6.029,0.054,0.011,0.034,102.0,107.0,101.0,13.4,1505.4,326.8,-0.7,1.8,2470.471,13.34,0.055,78.5
2020-08-08T00:34:03,42.805,6.029,0.092,0.001,0.042,101.0,107.0,100.0,13.3,1505.4,327.7,-0.7,1.8,2470.427,13.34,0.092,89.4
2020-08-08T00:37:03,42.805,6.029,0.1,0.018,0.075,102.0,107.0,101.0,13.4,1505.4,322.7,-0.7,1.8,2470.435,13.34,0.101,79.8
2020-08-08T00:40:03,42.805,6.029,0.03,0.015,0.026,102.0,109.0,100.0,13.4,1505.4,327.0,-0.7,1.9,2470.491,13.34,0.033,63.4
2020-08-08T00:43:03,42.805,6.029,-0.021,0.009,-0.03,103.0,108.0,100.0,13.3,1505.4,324.7,-0.7,1.8,2470.456,13.34,0.022,293.2
2020-08-08T00:46:03,42.805,6.029,-0.006,0.01,-0.039,102.0,108.0,99.0,13.4,1505.4,324.7,-0.7,1.8,2470.482,13.34,0.011,329.0
2020-08-08T00:49:03,42.805,6.029,0.011,0.027,-0.017,104.0,107.0,100.0,13.4,1505.4,327.3,-0.7,1.8,2470.439,13.34,0.029,22.2
2020-08-08T00:52:03,42.805,6.029,0.012,0.019,-0.03,100.0,108.0,101.0,13.3,1505.4,322.7,-0.7,1.8,2470.431,13.35,0.022,32.3
2020-08-08T00:55:03,42.805,6.029,0.01,0.0,-0.024,101.0,108.0,100.0,13.4,1505.4,323.4,-0.7,1.8,2470.452,13.35,0.01,90.0
2020-08-08T00:58:03,42.805,6.029,0.018,0.01,-0.003,103.0,106.0,100.0,13.4,1505.4,323.5,-0.7,1.9,2470.406,13.35,0.02,60.9
2020-08-08T01:04:03,42.805,6.029,0.041,0.017,0.032,104.0,108.0,101.0,13.4,1505.3,325.7,-0.7,1.8,2470.498,13.33,0.044,67.5
2020-08-08T01:07:03,42.805,6.029,0.068,0.003,0.06,104.0,106.0,100.0,13.4,1505.4,327.0,-0.7,1.9,2470.448,13.34,0.068,87.5
2020-08-08T01:10:03,42.805,6.029,0.082,0.016,0.053,101.0,105.0,101.0,13.4,1505.4,325.3,-0.7,1.8,2470.459,13.34,0.083,79.0
2020-08-08T01:13:03,42.805,6.029,0.079,0.023,0.059,102.0,107.0,99.0,13.3,1505.4,326.1,-0.7,1.8,2470.465,13.34,0.082,73.8
2020-08-08T01:16:03,42.805,6.029,0.079,0.025,0.07,100.0,107.0,102.0,13.3,1505.4,323.4,-0.7,1.8,2470.443,13.35,0.082,72.4
2020-08-08T01:19:03,42.805,6.029,0.044,0.008,0.041,102.0,108.0,100.0,13.4,1505.4,325.1,-0.7,1.9,2470.455,13.35,0.044,79.7
2020-08-08T01:22:03,42.805,6.029,0.041,0.019,0.007,102.0,107.0,101.0,13.3,1505.4,326.8,-0.7,1.8,2470.416,13.35,0.045,65.1
2020-08-08T01:25:03,42.805,6.029,0.045,0.012,0.027,102.0,107.0,100.0,13.4,1505.4,326.4,-0.7,1.8,2470.423,13.35,0.046,75.1
2020-08-08T01:28:03,42.805,6.029,0.035,0.024,0.059,102.0,107.0,101.0,13.3,1505.4,326.3,-0.7,1.8,2470.433,13.35,0.042,55.6
2020-08-08T01:31:03,42.805,6.029,0.051,0.021,0.033,102.0,107.0,100.0,13.4,1505.4,325.7,-0.7,1.8,2470.373,13.35,0.055,67.6
2020-08-08T01:34:03,42.805,6.029,0.052,0.012,0.048,101.0,107.0,100.0,13.4,1505.4,325.5,-0.7,1.8,2470.415,13.35,0.053,77.0
2020-08-08T01:37:03,42.805,6.029,0.052,0.015,0.037,103.0,107.0,100.0,13.3,1505.4,327.1,-0.7,1.9,2470.412,13.35,0.054,73.9
2020-08-08T01:40:03,42.805,6.029,0.087,0.008,0.063,104.0,106.0,100.0,13.3,1505.4,326.4,-0.8,1.9,2470.392,13.35,0.087,84.7
2020-08-08T01:43:03,42.805,6.029,0.078,0.039,0.058,101.0,108.0,101.0,13.3,1505.4,324.8,-0.7,1.8,2470.407,13.35,0.087,63.4
2020-08-08T01:46:03,42.805,6.029,0.025,-0.011,0.014,102.0,109.0,100.0,13.4,1505.4,328.1,-0.7,1.8,2470.422,13.35,0.027,113.7
2020-08-08T01:49:03,42.805,6.029,0.027,-0.004,0.008,105.0,108.0,99.0,13.4,1505.4,328.4,-0.7,1.8,2470.432,13.35,0.027,98.4
2020-08-08T01:52:03,42.805,6.029,-0.013,-0.005,-0.006,104.0,108.0,101.0,13.4,1505.4,325.6,-0.7,1.8,2470.393,13.35,0.013,249.0
2020-08-08T01:55:03,42.805,6.029,0.009,0.012,0.004,104.0,108.0,101.0,13.4,1505.4,328.3,-0.7,1.8,2470.408,13.35,0.015,36.9
2020-08-08T01:58:03,42.805,6.029,-0.015,-0.005,-0.01,102.0,109.0,101.0,13.4,1505.4,324.2,-0.7,1.8,2470.404,13.35,0.015,251.6
2020-08-08T02:04:03,42.805,6.029,0.007,0.028,0.006,103.0,108.0,101.0,13.4,1505.3,325.7,-0.7,1.8,2470.453,13.33,0.028,14.0
2020-08-08T02:07:03,42.805,6.029,0.048,0.027,0.052,102.0,107.0,101.0,13.4,1505.4,323.5,-0.7,1.8,2470.447,13.34,0.055,60.6
2020-08-08T02:10:03,42.805,6.029,0.053,0.007,0.029,101.0,107.0,102.0,13.3,1505.4,326.1,-0.7,1.8,2470.411,13.34,0.053,82.5
2020-08-08T02:13:03,42.805,6.029,0.031,0.021,0.025,105.0,107.0,100.0,13.3,1505.4,323.7,-0.7,1.8,2470.379,13.34,0.037,55.9
2020-08-08T02:16:03,42.805,6.029,0.006,0.006,0.003,102.0,107.0,101.0,13.3,1505.4,325.7,-0.7,1.8,2470.358,13.35,0.008,45.0
2020-08-08T02:19:03,42.805,6.029,0.003,0.013,-0.004,102.0,109.0,101.0,13.4,1505.4,328.2,-0.7,1.8,2470.382,13.35,0.013,13.0
2020-08-08T02:22:03,42.805,6.029,-0.007,0.015,0.007,104.0,108.0,100.0,13.4,1505.4,325.9,-0.7,1.8,2470.415,13.35,0.016,335.0
2020-08-08T02:25:03,42.805,6.029,0.001,0.001,-0.013,103.0,107.0,99.0,13.3,1505.4,326.4,-0.7,1.8,2470.376,13.35,0.001,45.0
2020-08-08T02:28:03,42.805,6.029,0.027,0.01,-0.011,104.0,106.0,99.0,13.3,1505.4,326.1,-0.7,1.8,2470.383,13.35,0.028,69.7
2020-08-08T02:31:03,42.805,6.029,0.01,0.008,0.012,105.0,107.0,101.0,13.3,1505.4,328.2,-0.7,1.8,2470.399,13.35,0.012,51.3
2020-08-08T02:34:03,42.805,6.029,0.017,0.016,0.025,102.0,108.0,101.0,13.3,1505.4,323.9,-0.7,1.8,2470.379,13.35,0.023,46.7
2020-08-08T02:37:03,42.805,6.029,0.006,0.022,-0.01,103.0,108.0,100.0,13.4,1505.4,323.9,-0.7,1.8,2470.385,13.35,0.022,15.3
2020-08-08T02:40:03,42.805,6.029,0.007,0.008,0.012,102.0,109.0,101.0,13.4,1505.4,323.0,-0.7,1.8,2470.375,13.35,0.01,41.2
2020-08-08T02:43:03,42.805,6.029,0.027,0.016,-0.011,103.0,108.0,99.0,13.3,1505.4,325.4,-0.7,1.8,2470.381,13.35,0.031,59.3
2020-08-08T02:46:03,42.805,6.029,0.031,0.007,0.005,101.0,107.0,102.0,13.3,1505.4,327.2,-0.7,1.8,2470.374,13.35,0.031,77.3
2020-08-08T02:49:03,42.805,6.029,0.016,0.005,0.02,101.0,107.0,101.0,13.3,1505.4,325.0,-0.7,1.8,2470.384,13.35,0.016,72.6
2020-08-08T02:55:03,42.805,6.029,0.029,0.018,0.028,101.0,108.0,100.0,13.3,1505.3,324.6,-0.7,1.8,2470.441,13.33,0.034,58.2
2020-08-08T02:58:03,42.805,6.029,0.062,0.01,0.04,102.0,107.0,100.0,13.3,1505.4,325.5,-0.7,1.8,2470.372,13.34,0.062,80.8
2020-08-08T03:04:03,42.805,6.029,0.046,0.005,0.025,102.0,107.0,100.0,13.4,1505.3,327.0,-0.7,1.8,2470.407,13.32,0.046,83.8
2020-08-08T03:07:03,42.805,6.029,0.044,0.019,0.019,102.0,108.0,99.0,13.3,1505.3,323.2,-0.7,1.8,2470.365,13.33,0.047,66.6
2020-08-08T03:10:03,42.805,6.029,0.019,0.012,0.003,101.0,107.0,101.0,13.4,1505.4,323.6,-0.7,1.8,2470.416,13.34,0.022,57.7
2020-08-08T03:13:03,42.805,6.029,0.011,0.006,-0.004,103.0,106.0,101.0,13.3,1505.4,326.7,-0.6,1.8,2470.376,13.34,0.012,61.4
2020-08-08T03:16:03,42.805,6.029,0.016,0.018,-0.011,104.0,106.0,99.0,13.4,1505.4,325.3,-0.7,1.8,2470.377,13.34,0.024,41.6
2020-08-08T03:19:03,42.805,6.029,0.003,0.019,-0.016,104.0,107.0,100.0,13.4,1505.4,327.6,-0.7,1.8,2470.387,13.34,0.019,9.0
2020-08-08T03:22:03,42.805,6.029,0.038,0.017,0.01,103.0,107.0,100.0,13.4,1505.4,324.3,-0.7,1.8,2470.378,13.34,0.041,65.9
2020-08-08T03:25:03,42.805,6.029,-0.03,-0.006,-0.048,102.0,107.0,101.0,13.4,1505.4,323.4,-0.7,1.9,2470.339,13.35,0.03,258.7
2020-08-08T03:28:03,42.805,6.029,-0.036,0.005,-0.075,102.0,106.0,100.0,13.4,1505.4,324.5,-0.7,1.8,2470.369,13.35,0.036,277.9
2020-08-08T03:31:03,42.805,6.029,-0.037,0.018,-0.031,104.0,105.0,100.0,13.4,1505.4,326.4,-0.7,1.8,2470.382,13.35,0.041,295.9
2020-08-08T03:34:03,42.805,6.029,-0.015,0.005,-0.026,103.0,106.0,100.0,13.3,1505.4,326.3,-0.7,1.8,2470.356,13.35,0.015,288.4
2020-08-08T03:37:03,42.805,6.029,-0.017,0.0,-0.038,102.0,107.0,99.0,13.4,1505.4,325.8,-0.7,1.8,2470.364,13.35,0.017,270.0
2020-08-08T03:40:03,42.805,6.029,-0.031,0.01,-0.026,102.0,107.0,100.0,13.4,1505.4,326.3,-0.7,1.8,2470.385,13.35,0.032,287.9
2020-08-08T03:43:03,42.805,6.029,-0.015,0.004,-0.013,102.0,106.0,101.0,13.4,1505.4,326.9,-0.7,1.8,2470.368,13.35,0.015,284.9
2020-08-08T03:46:03,42.805,6.029,0.027,0.014,0.027,101.0,106.0,99.0,13.4,1505.4,327.1,-0.7,1.8,2470.374,13.35,0.03,62.6
2020-08-08T03:49:03,42.805,6.029,0.019,0.014,0.021,102.0,106.0,100.0,13.4,1505.4,325.1,-0.7,1.8,2470.348,13.34,0.023,53.6
2020-08-08T03:52:03,42.805,6.029,-0.034,0.006,-0.017,102.0,105.0,101.0,13.4,1505.4,327.1,-0.7,1.9,2470.357,13.35,0.034,280.0
2020-08-08T03:55:03,42.805,6.029,-0.014,0.002,-0.046,101.0,105.0,101.0,13.4,1505.4,325.8,-0.7,1.8,2470.331,13.34,0.014,278.1
2020-08-08T03:58:03,42.805,6.029,-0.049,0.024,-0.032,102.0,106.0,100.0,13.3,1505.4,324.1,-0.7,1.8,2470.316,13.34,0.054,296.1
2020-08-08T04:04:03,42.805,6.029,-0.026,0.003,-0.004,102.0,105.0,101.0,13.3,1505.3,326.0,-0.7,1.8,2470.389,13.32,0.026,276.6
2020-08-08T04:07:03,42.805,6.029,-0.053,0.011,-0.024,102.0,106.0,101.0,13.3,1505.3,325.8,-0.7,1.8,2470.386,13.33,0.054,281.7
2020-08-08T04:10:03,42.805,6.029,-0.041,0.03,-0.01,102.0,105.0,101.0,13.4,1505.3,325.9,-0.7,1.8,2470.36,13.33,0.05,306.2
2020-08-08T04:13:03,42.805,6.029,-0.021,-0.002,-0.034,101.0,105.0,102.0,13.4,1505.4,327.2,-0.7,1.8,2470.38,13.34,0.021,264.6
2020-08-08T04:16:03,42.805,6.029,-0.015,0.008,-0.02,102.0,106.0,101.0,13.4,1505.4,326.8,-0.7,1.8,2470.406,13.34,0.017,298.1
2020-08-08T04:19:03,42.805,6.029,-0.021,-0.011,0.0,102.0,108.0,100.0,13.4,1505.4,328.5,-0.7,1.8,2470.343,13.34,0.023,242.4
2020-08-08T04:22:03,42.805,6.029,0.009,-0.009,-0.042,103.0,106.0,100.0,13.4,1505.4,324.0,-0.7,1.8,2470.335,13.34,0.012,135.0
2020-08-08T04:25:03,42.805,6.029,0.009,0.018,0.008,101.0,106.0,101.0,13.4,1505.4,324.6,-0.7,1.8,2470.346,13.34,0.02,26.6
2020-08-08T04:28:03,42.805,6.029,-0.02,0.0,-0.009,103.0,107.0,101.0,13.4,1505.4,326.7,-0.7,1.8,2470.357,13.34,0.02,270.0
2020-08-08T04:31:03,42.805,6.029,-0.004,0.002,0.003,105.0,107.0,100.0,13.3,1505.4,326.3,-0.7,1.8,2470.333,13.34,0.004,296.6
2020-08-08T04:34:03,42.805,6.029,0.003,0.017,-0.007,103.0,107.0,101.0,13.4,1505.4,324.8,-0.7,1.8,2470.342,13.34,0.017,10.0
2020-08-08T04:37:03,42.805,6.029,-0.001,0.024,-0.018,103.0,107.0,101.0,13.4,1505.4,323.5,-0.7,1.9,2470.314,13.34,0.024,357.6
2020-08-08T04:40:03,42.805,6.029,0.011,0.001,0.026,101.0,108.0,100.0,13.4,1505.4,327.4,-0.7,1.8,2470.372,13.34,0.011,84.8
2020-08-08T04:43:03,42.805,6.029,0.004,0.013,0.002,102.0,106.0,102.0,13.4,1505.4,326.2,-0.8,1.9,2470.382,13.34,0.013,17.1
2020-08-08T04:46:03,42.805,6.029,-0.039,0.023,-0.016,103.0,108.0,101.0,13.4,1505.4,325.4,-0.7,1.8,2470.333,13.34,0.045,300.5
2020-08-08T04:49:03,42.805,6.029,0.014,0.017,0.056,102.0,108.0,101.0,13.3,1505.4,326.6,-0.7,1.8,2470.333,13.34,0.022,39.5
2020-08-08T04:52:03,42.805,6.029,0.0,0.032,-0.009,105.0,108.0,100.0,13.4,1505.4,327.7,-0.7,1.9,2470.337,13.34,0.032,0.0
2020-08-08T04:55:03,42.805,6.029,-0.031,0.011,-0.046,103.0,108.0,100.0,13.4,1505.4,324.5,-0.7,1.8,2470.294,13.34,0.032,289.5
2020-08-08T04:58:03,42.805,6.029,0.009,0.022,0.021,103.0,107.0,100.0,13.4,1505.4,328.1,-0.7,1.9,2470.344,13.34,0.023,22.2
2020-08-08T05:04:03,42.805,6.029,-0.01,0.013,-0.004,103.0,108.0,101.0,13.4,1505.3,323.9,-0.7,1.8,2470.379,13.32,0.016,322.4
2020-08-08T05:07:03,42.805,6.029,0.003,0.027,-0.012,104.0,107.0,100.0,13.3,1505.3,327.8,-0.7,1.8,2470.354,13.33,0.027,6.3
2020-08-08T05:10:03,42.805,6.029,-0.006,-0.001,-0.053,103.0,107.0,101.0,13.4,1505.3,325.5,-0.7,1.8,2470.375,13.33,0.006,260.5
2020-08-08T05:13:03,42.805,6.029,-0.004,0.018,-0.03,103.0,107.0,101.0,13.4,1505.3,325.3,-0.7,1.8,2470.349,13.33,0.018,347.5
2020-08-08T05:16:03,42.805,6.029,-0.022,0.005,-0.006,103.0,107.0,100.0,13.3,1505.3,325.7,-0.7,1.8,2470.346,13.33,0.022,282.8
2020-08-08T05:19:03,42.805,6.029,-0.011,0.023,0.011,103.0,107.0,102.0,13.4,1505.3,328.5,-0.7,1.8,2470.35,13.33,0.025,334.4
2020-08-08T05:22:03,42.805,6.029,-0.001,0.034,0.037,102.0,107.0,101.0,13.3,1505.4,324.7,-0.7,1.8,2470.356,13.34,0.034,358.3
2020-08-08T05:25:03,42.805,6.029,-0.006,0.008,-0.023,103.0,107.0,101.0,13.4,1505.4,323.2,-0.7,1.8,2470.336,13.34,0.01,323.1
2020-08-08T05:28:03,42.805,6.029,-0.041,0.006,-0.02,102.0,108.0,102.0,13.4,1505.4,323.0,-0.7,1.8,2470.35,13.34,0.041,278.3
2020-08-08T05:31:03,42.805,6.029,-0.023,0.017,-0.049,102.0,108.0,101.0,13.3,1505.4,325.8,-0.7,1.8,2470.367,13.34,0.028,306.5
2020-08-08T05:34:03,42.805,6.029,0.0,0.027,-0.01,102.0,108.0,101.0,13.3,1505.4,328.5,-0.7,1.8,2470.333,13.34,0.026,0.0
2020-08-08T05:37:03,42.805,6.029,-0.026,0.03,0.007,105.0,107.0,100.0,13.4,1505.4,324.4,-0.7,1.8,2470.365,13.34,0.039,319.1
2020-08-08T05:40:03,42.805,6.029,-0.006,0.008,-0.027,104.0,107.0,100.0,13.4,1505.4,325.1,-0.7,1.8,2470.361,13.34,0.01,323.1
2020-08-08T05:43:03,42.805,6.029,-0.033,0.033,-0.012,102.0,107.0,101.0,13.4,1505.4,326.7,-0.7,1.8,2470.355,13.34,0.046,315.0
2020-08-08T05:46:03,42.805,6.029,0.004,0.018,-0.008,101.0,107.0,100.0,13.4,1505.4,324.2,-0.7,1.8,2470.363,13.34,0.018,12.5
2020-08-08T05:49:03,42.805,6.029,-0.007,0.01,-0.03,104.0,107.0,100.0,13.4,1505.4,323.9,-0.7,1.8,2470.346,13.34,0.012,325.0
2020-08-08T05:52:03,42.805,6.029,-0.023,0.034,-0.01,102.0,108.0,100.0,13.4,1505.4,328.1,-0.7,1.8,2470.38,13.34,0.041,325.9
2020-08-08T05:55:03,42.805,6.029,-0.003,0.01,-0.018,104.0,106.0,100.0,13.4,1505.4,323.6,-0.7,1.8,2470.311,13.34,0.01,343.3
2020-08-08T05:58:03,42.805,6.029,-0.019,0.001,-0.034,103.0,107.0,101.0,13.3,1505.4,323.3,-0.7,1.9,2470.351,13.34,0.019,273.0
2020-08-08T06:04:03,42.805,6.029,-0.018,0.02,-0.033,102.0,105.0,99.0,13.3,1505.3,326.4,-0.7,1.8,2470.393,13.32,0.026,318.0
2020-08-08T06:07:03,42.805,6.029,-0.015,0.013,-0.02,103.0,107.0,101.0,13.4,1505.3,327.0,-0.7,1.9,2470.394,13.33,0.019,310.9
2020-08-08T06:10:03,42.805,6.029,0.001,0.021,-0.028,103.0,106.0,101.0,13.4,1505.3,326.9,-0.7,1.8,2470.366,13.33,0.021,2.7
2020-08-08T06:13:03,42.805,6.029,-0.024,0.017,-0.014,104.0,107.0,100.0,13.4,1505.4,323.4,-0.7,1.8,2470.434,13.34,0.029,305.3
2020-08-08T06:16:03,42.805,6.029,-0.047,0.003,-0.046,103.0,106.0,101.0,13.4,1505.4,324.2,-0.7,1.8,2470.399,13.34,0.047,273.6
2020-08-08T06:19:03,42.805,6.029,-0.018,0.036,-0.034,102.0,106.0,101.0,13.4,1505.4,324.5,-0.7,1.8,2470.326,13.34,0.04,333.4
2020-08-08T06:22:03,42.805,6.029,0.027,0.01,0.05,101.0,107.0,101.0,13.3,1505.4,324.5,-0.7,1.8,2470.37,13.34,0.028,69.7
2020-08-08T06:25:03,42.805,6.029,-0.021,0.008,-0.009,103.0,106.0,104.0,13.4,1505.4,323.2,-0.7,1.9,2470.351,13.34,0.022,290.9
2020-08-08T06:28:03,42.805,6.029,-0.039,0.021,-0.036,101.0,107.0,102.0,13.3,1505.4,324.9,-0.7,1.8,2470.404,13.34,0.044,298.3
2020-08-08T06:31:03,42.805,6.029,-0.019,0.014,-0.015,103.0,108.0,102.0,13.3,1505.4,324.3,-0.7,1.9,2470.38,13.34,0.023,306.4
2020-08-08T06:34:03,42.805,6.029,-0.004,0.004,-0.006,101.0,108.0,101.0,13.3,1505.4,326.8,-0.7,1.9,2470.349,13.34,0.005,315.0
2020-08-08T06:37:03,42.805,6.029,-0.027,0.0,-0.02,103.0,108.0,103.0,13.4,1505.4,323.9,-0.7,1.9,2470.381,13.34,0.026,270.0
2020-08-08T06:40:03,42.805,6.029,0.001,0.024,0.007,106.0,107.0,100.0,13.4,1505.4,324.2,-0.7,1.8,2470.414,13.34,0.024,2.4
2020-08-08T06:43:03,42.805,6.029,0.005,0.009,0.0,102.0,109.0,101.0,13.4,1505.4,325.3,-0.7,1.8,2470.39,13.34,0.01,29.1
2020-08-08T06:46:03,42.805,6.029,-0.018,0.015,-0.017,103.0,108.0,101.0,13.4,1505.4,326.7,-0.7,1.8,2470.363,13.34,0.023,309.8
2020-08-08T06:49:03,42.805,6.029,-0.027,-0.002,-0.029,103.0,107.0,100.0,13.4,1505.4,324.0,-0.7,1.8,2470.399,13.34,0.027,265.8
2020-08-08T06:52:03,42.805,6.029,0.007,0.008,-0.011,103.0,108.0,101.0,13.4,1505.4,324.5,-0.7,1.8,2470.356,13.34,0.01,41.2
2020-08-08T06:55:03,42.805,6.029,-0.001,0.016,-0.011,102.0,107.0,101.0,13.4,1505.4,326.3,-0.7,1.8,2470.384,13.34,0.016,356.4
2020-08-08T06:58:03,42.805,6.029,0.005,0.004,0.006,104.0,107.0,101.0,13.4,1505.4,323.1,-0.7,1.8,2470.391,13.34,0.006,51.3
2020-08-08T07:04:03,42.805,6.029,-0.027,0.012,-0.025,103.0,106.0,101.0,13.4,1505.3,326.3,-0.8,1.8,2470.411,13.32,0.029,294.0
2020-08-08T07:07:03,42.805,6.029,0.005,0.029,-0.029,105.0,106.0,101.0,13.3,1505.3,326.3,-0.7,1.8,2470.44,13.33,0.029,9.8
2020-08-08T07:10:03,42.805,6.029,-0.001,0.02,0.009,104.0,105.0,100.0,13.3,1505.3,325.0,-0.7,1.8,2470.383,13.33,0.02,357.1
2020-08-08T07:13:03,42.805,6.029,-0.006,0.023,0.008,103.0,107.0,101.0,13.3,1505.3,324.8,-0.7,1.8,2470.404,13.33,0.023,345.4
2020-08-08T07:16:03,42.805,6.029,-0.025,0.003,-0.016,102.0,106.0,102.0,13.4,1505.4,327.6,-0.7,1.8,2470.391,13.34,0.025,276.8
2020-08-08T07:19:03,42.805,6.029,-0.013,-0.009,-0.017,104.0,108.0,101.0,13.3,1505.4,326.1,-0.7,1.8,2470.442,13.34,0.015,235.3
2020-08-08T07:22:03,42.805,6.029,-0.008,0.025,-0.015,103.0,107.0,101.0,13.3,1505.4,326.2,-0.7,1.8,2470.415,13.34,0.026,342.3
2020-08-08T07:25:03,42.805,6.029,-0.015,0.019,-0.017,104.0,107.0,101.0,13.3,1505.4,326.6,-0.7,1.8,2470.425,13.34,0.024,321.7
2020-08-08T07:28:03,42.805,6.029,-0.019,0.019,-0.029,105.0,106.0,101.0,13.4,1505.4,326.4,-0.7,1.8,2470.403,13.34,0.026,315.0
2020-08-08T07:31:03,42.805,6.029,-0.008,0.008,-0.02,104.0,108.0,101.0,13.3,1505.4,326.4,-0.7,1.8,2470.344,13.34,0.011,315.0
2020-08-08T07:34:03,42.805,6.029,-0.005,0.018,-0.019,104.0,106.0,102.0,13.3,1505.4,326.4,-0.7,1.8,2470.366,13.34,0.018,344.5
2020-08-08T07:37:03,42.805,6.029,-0.025,0.026,-0.002,103.0,108.0,102.0,13.3,1505.4,323.8,-0.7,1.8,2470.388,13.34,0.036,316.1
2020-08-08T07:40:03,42.805,6.029,0.014,-0.003,-0.042,104.0,107.0,102.0,13.4,1505.4,324.1,-0.7,1.8,2470.381,13.34,0.014,102.1
2020-08-08T07:43:03,42.805,6.029,-0.013,0.018,-0.033,104.0,107.0,100.0,13.4,1505.4,327.5,-0.7,1.8,2470.409,13.34,0.022,324.2
2020-08-08T07:46:03,42.805,6.029,-0.027,0.01,-0.04,102.0,107.0,101.0,13.3,1505.4,324.4,-0.7,1.8,2470.407,13.34,0.028,290.3
2020-08-08T07:49:03,42.805,6.029,0.001,0.011,0.018,102.0,107.0,100.0,13.4,1505.4,327.0,-0.7,1.8,2470.373,13.34,0.011,5.2
2020-08-08T07:52:03,42.805,6.029,-0.006,0.016,-0.003,104.0,107.0,100.0,13.3,1505.4,325.2,-0.7,1.8,2470.386,13.34,0.017,339.4
2020-08-08T07:55:03,42.805,6.029,-0.005,0.012,0.0,103.0,107.0,101.0,13.3,1505.4,325.0,-0.7,1.8,2470.401,13.34,0.013,337.4
2020-08-08T07:58:03,42.805,6.029,-0.014,0.008,-0.06,103.0,107.0,100.0,13.4,1505.4,325.6,-0.7,1.8,2470.413,13.34,0.016,299.7
2020-08-08T08:04:03,42.805,6.029,-0.032,0.008,-0.001,103.0,107.0,101.0,13.4,1505.3,324.3,-0.7,1.8,2470.448,13.32,0.032,284.0
2020-08-08T08:07:03,42.805,6.029,0.007,0.023,-0.004,102.0,107.0,100.0,13.4,1505.3,324.3,-0.7,1.8,2470.458,13.33,0.024,16.9
2020-08-08T08:10:03,42.805,6.029,-0.009,0.003,-0.051,105.0,107.0,100.0,13.3,1505.3,328.2,-0.7,1.8,2470.457,13.33,0.009,288.4
2020-08-08T08:13:03,42.805,6.029,0.002,0.01,-0.002,102.0,108.0,101.0,13.4,1505.3,323.1,-0.7,1.8,2470.464,13.33,0.01,11.3
2020-08-08T08:16:03,42.805,6.029,0.0,0.014,-0.013,101.0,107.0,101.0,13.4,1505.3,326.2,-0.7,1.8,2470.464,13.33,0.014,0.0
2020-08-08T08:19:03,42.805,6.029,-0.034,0.025,-0.029,103.0,106.0,102.0,13.4,1505.4,324.5,-0.7,1.8,2470.446,13.34,0.042,306.3
2020-08-08T08:22:03,42.805,6.029,-0.032,0.024,-0.003,103.0,107.0,101.0,13.4,1505.4,328.1,-0.7,1.9,2470.433,13.34,0.04,306.9
2020-08-08T08:25:03,42.805,6.029,0.0,0.022,-0.036,102.0,108.0,100.0,13.4,1505.4,327.4,-0.7,1.8,2470.426,13.34,0.022,0.0
2020-08-08T08:28:03,42.805,6.029,-0.022,0.027,-0.009,103.0,107.0,101.0,13.4,1505.3,323.0,-0.7,1.9,2470.454,13.33,0.034,320.8
2020-08-08T08:31:03,42.805,6.029,-0.019,0.03,-0.014,103.0,106.0,101.0,13.4,1505.4,324.0,-0.7,1.8,2470.431,13.34,0.035,327.7
2020-08-08T08:34:03,42.805,6.029,-0.018,0.035,-0.036,103.0,107.0,101.0,13.4,1505.4,328.2,-0.7,1.8,2470.436,13.34,0.039,332.8
2020-08-08T08:37:03,42.805,6.029,-0.006,0.002,-0.047,103.0,107.0,100.0,13.3,1505.4,327.4,-0.7,1.8,2470.466,13.34,0.006,288.4
2020-08-08T08:40:03,42.805,6.029,0.0,0.017,0.007,104.0,107.0,101.0,13.3,1505.4,328.1,-0.7,1.8,2470.462,13.34,0.017,0.0
2020-08-08T08:43:03,42.805,6.029,-0.005,0.03,0.0,103.0,107.0,101.0,13.4,1505.4,324.3,-0.7,1.8,2470.462,13.34,0.03,350.5
2020-08-08T08:46:03,42.805,6.029,0.011,0.013,-0.016,103.0,106.0,101.0,13.4,1505.4,326.3,-0.7,1.8,2470.397,13.34,0.017,40.2
2020-08-08T08:49:03,42.805,6.029,-0.008,0.014,-0.042,104.0,107.0,101.0,13.3,1505.4,325.0,-0.7,1.8,2470.409,13.34,0.016,330.3
2020-08-08T08:52:03,42.805,6.029,-0.021,0.008,-0.007,102.0,107.0,101.0,13.4,1505.4,324.8,-0.7,1.8,2470.46,13.34,0.022,290.9
2020-08-08T08:55:03,42.805,6.029,0.002,0.01,-0.009,104.0,107.0,100.0,13.4,1505.4,328.2,-0.7,1.8,2470.403,13.34,0.01,11.3
2020-08-08T08:58:03,42.805,6.029,-0.02,0.008,-0.033,105.0,107.0,102.0,13.4,1505.4,324.1,-0.7,1.8,2470.422,13.34,0.021,291.8
2020-08-08T09:04:03,42.805,6.029,0.0,0.033,-0.002,102.0,107.0,102.0,13.4,1505.3,326.2,-0.7,1.8,2470.448,13.32,0.033,0.0
2020-08-08T09:07:03,42.805,6.029,-0.003,0.019,0.0,103.0,108.0,101.0,13.4,1505.3,326.3,-0.7,1.9,2470.489,13.32,0.019,351.0
2020-08-08T09:10:03,42.805,6.029,0.019,0.005,-0.002,105.0,107.0,102.0,13.3,1505.3,325.8,-0.7,1.8,2470.475,13.33,0.019,75.3
2020-08-08T09:13:03,42.805,6.029,0.013,0.028,0.021,102.0,108.0,100.0,13.3,1505.3,323.3,-0.7,1.8,2470.43,13.33,0.03,24.9
2020-08-08T09:16:03,42.805,6.029,-0.012,0.036,-0.012,102.0,107.0,100.0,13.4,1505.3,324.5,-0.7,1.8,2470.473,13.33,0.037,341.6
2020-08-08T09:19:03,42.805,6.029,-0.01,0.013,-0.003,104.0,108.0,101.0,13.3,1505.3,325.1,-0.7,1.8,2470.458,13.33,0.016,322.4
2020-08-08T09:22:03,42.805,6.029,-0.025,0.035,-0.048,104.0,107.0,101.0,13.3,1505.3,323.6,-0.7,1.8,2470.495,13.33,0.043,324.5
2020-08-08T09:25:03,42.805,6.029,0.02,0.016,0.0,102.0,107.0,101.0,13.4,1505.4,326.4,-0.7,1.9,2470.443,13.34,0.025,51.3
2020-08-08T09:28:03,42.805,6.029,-0.004,0.02,0.012,105.0,107.0,100.0,13.4,1505.4,323.0,-0.7,1.8,2470.493,13.34,0.02,348.7
2020-08-08T09:31:03,42.805,6.029,-0.001,0.02,0.003,102.0,108.0,101.0,13.4,1505.4,326.5,-0.7,1.8,2470.439,13.34,0.02,357.1
2020-08-08T09:34:03,42.805,6.029,-0.009,0.029,-0.008,104.0,106.0,101.0,13.4,1505.4,324.8,-0.7,1.8,2470.436,13.34,0.03,342.8
2020-08-08T09:37:03,42.805,6.029,0.007,0.027,-0.018,103.0,108.0,100.0,13.4,1505.4,327.8,-0.7,1.8,2470.426,13.34,0.027,14.5
2020-08-08T09:40:03,42.805,6.029,0.026,0.026,-0.009,105.0,107.0,101.0,13.4,1505.4,328.0,-0.7,1.9,2470.394,13.34,0.036,45.0
2020-08-08T09:43:03,42.805,6.029,0.024,0.021,-0.023,101.0,107.0,101.0,13.4,1505.4,328.2,-0.7,1.8,2470.436,13.34,0.031,48.8
2020-08-08T09:46:03,42.805,6.029,0.021,0.021,0.008,105.0,107.0,101.0,13.4,1505.4,323.9,-0.7,1.9,2470.441,13.34,0.029,45.0
2020-08-08T09:49:03,42.805,6.029,0.002,0.001,0.006,104.0,107.0,102.0,13.3,1505.4,326.1,-0.7,1.8,2470.445,13.34,0.002,63.4
2020-08-08T09:52:03,42.805,6.029,0.007,0.016,-0.007,104.0,107.0,101.0,13.4,1505.4,327.4,-0.7,1.8,2470.452,13.34,0.017,23.6
2020-08-08T09:55:03,42.805,6.029,-0.016,0.027,0.023,102.0,108.0,101.0,13.4,1505.4,327.7,-0.7,1.8,2470.45,13.34,0.031,329.3
2020-08-08T09:58:03,42.805,6.029,-0.003,0.029,-0.004,104.0,107.0,100.0,13.3,1505.4,326.3,-0.7,1.8,2470.41,13.34,0.029,354.1
2020-08-08T10:04:03,42.805,6.029,-0.004,0.027,-0.002,103.0,108.0,101.0,13.4,1505.3,325.5,-0.7,1.8,2470.477,13.32,0.027,351.6
2020-08-08T10:07:03,42.805,6.029,0.004,0.024,-0.013,104.0,107.0,100.0,13.4,1505.3,328.0,-0.7,1.8,2470.434,13.32,0.024,9.5